Location: Napa Soda Springs
(38.3907°N, 122.2794°W)
Time: 20:46:47
(UTC+00:00)

Cosmos 1980 Rocket - Pass Details

Date: 29 October 2020
Orbit: 831 x 848 km, 71.0° (Epoch: 24 November)

Event Time Altitude Azimuth Distance (km) Brightness Sun altitude
Exits shadow 12:51:31 - 339° (NNW) 2,881 4.8 -20.4°
Reaches altitude 10° 12:52:40 10° 340° (NNW) 2,444 4.4 -20.2°
Maximum altitude 12:58:17 80° 67° (ENE) 848 2.2 -19.1°
Drops below altitude 10° 13:03:52 10° 155° (SSE) 2,435 5.0 -18.0°
Sets 13:06:18 0° 156° (SSE) 3,367 5.7 -17.5°
